AO-07 1 07530U 74089B 15175.89288299 -.00000041 00000-0 15315-4 0 9992 2 07530 101.5217 151.1922 0011540 289.5048 097.9937 12.53614927858221 FO-29 1 24278U 96046B 15176.44437851 .00000022 00000-0 56512-4 0 9991 2 24278 098.5407 144.1188 0351339 049.5215 064.6775 13.53053730931148 SO-33 1 25509U 98061B 15176.11018454 .00000383 00000-0 62942-4 0 9990 2 25509 031.4303 206.5977 0347753 142.8702 219.6513 14.30014359870558 RS-22 1 27939U 03042A 15176.40420121 .00000766 00000-0 14773-3 0 9997 2 27939 097.8426 337.9321 0013428 007.5768 352.5677 14.66078167627395 HO-68 1 36122U 09072B 15176.68004253 -.00000059 00000-0 -43517-4 0 9990 2 36122 100.1937 221.1839 0008096 098.9712 261.2320 13.16328027265576 AO-73 1 39444U 13066AE 15176.07104633 .00001859 00000-0 24320-3 0 9991 2 39444 097.7300 238.5397 0061347 109.7246 251.0598 14.80278771 84589 EO-79 1 40025U 14033R 15176.29017414 .00001184 00000-0 13770-3 0 9995 2 40025 097.9519 076.5676 0013447 151.8889 208.3056 14.87181685 55002 UO-11 1 14781U 84021B 15176.47112787 .00000528 00000-0 72250-4 0 9998 2 14781 097.8011 233.3495 0009674 050.9957 309.2116 14.82427691683259 AO-16 1 20439U 90005D 15176.51971833 .00000086 00000-0 47683-4 0 9995 2 20439 098.5405 112.5924 0011681 131.6636 280.8433 14.32551273327933 LO-19 1 20442U 90005G 15175.39675234 .00000107 00000-0 55178-4 0 9992 2 20442 098.5114 111.0212 0012774 123.7882 236.4521 14.32743401327972 AO-27 1 22825U 93061C 15175.82625677 .00000090 00000-0 52546-4 0 9995 2 22825 098.7088 125.9374 0007309 289.7793 099.6007 14.29887905134031 IO-26 1 22826U 93061D 15176.57503301 .00000070 00000-0 44271-4 0 9992 2 22826 098.7033 126.8527 0007779 277.7496 082.2802 14.30205509134284 GO-32 1 25397U 98043D 15176.11834701 .00000040 00000-0 36353-4 0 9993 2 25397 098.5201 126.3115 0000802 012.1145 053.3676 14.23550517880926 NO-44 1 26931U 01043C 15176.05299718 .00000083 00000-0 63708-4 0 9999 2 26931 067.0499 156.8030 0005853 268.8962 091.1469 14.30322838716922 SO-50 1 27607U 02058C 15176.44549164 .00000462 00000-0 86219-4 0 9996 2 27607 064.5534 173.5823 0081763 286.7254 072.4887 14.74761062672503 CO-55 1 27844U 03031E 15175.53467323 .00000204 00000-0 11267-3 0 9990 2 27844 098.6949 183.9565 0008433 281.5039 247.1211 14.21814181621485 CO-57 1 27848U 03031J 15175.26701557 .00000181 00000-0 10261-3 0 9991 2 27848 098.7047 183.6035 0008421 290.8899 198.7980 14.21459313621354 AO-51 1 28375U 04025K 15175.38959602 .00000170 00000-0 63540-4 0 9997 2 28375 098.2925 115.6265 0081747 308.4817 050.9059 14.41672710577523 CP3 1 31129U 07012N 15175.49676366 .00000758 00000-0 17311-3 0 9998 2 31129 097.9809 140.9410 0095192 291.4623 186.4410 14.55851220434189 CO-65 1 32785U 08021C 15176.12083770 .00001364 00000-0 15830-3 0 9998 2 32785 097.6484 219.3913 0014492 045.8282 013.6322 14.86911154387412 PRISM 1 33493U 09002B 15176.73745746 .00002857 00000-0 27796-3 0 9992 2 33493 098.2485 014.5599 0015054 304.0991 055.8772 14.93350940347853 SOHLA-1 1 33496U 09002E 15175.99401021 .00000389 00000-0 71181-4 0 9993 2 33496 098.2130 303.9417 0007329 131.7852 293.3144 14.71377928344326 TISAT-1 1 36799U 10035E 15176.55958583 .00001908 00000-0 21087-3 0 9990 2 36799 098.0164 277.0320 0013283 173.8442 313.4537 14.88568204268201 STUDSAT 1 36801U 10035G 15176.33674068 .00010389 00000-0 59833-3 0 9996 2 36801 098.0619 296.2281 0007281 117.7083 301.0783 15.12606772269206 ALMASAT-1 1 38078U 12006B 15176.86002776 .00026794 35047-5 44372-3 0 9996 2 38078 069.4569 218.5626 0480145 245.5576 109.4732 14.79359787176328 CUBEBUG-1 1 39153U 13018D 15176.74282450 .00000933 00000-0 13244-3 0 9998 2 39153 098.0173 261.0826 0016396 221.8238 138.1721 14.79261425116740 ESTCUBE-1 1 39161U 13021C 15176.70287392 .00000589 00000-0 10366-3 0 9996 2 39161 098.0688 259.5557 0008290 288.9743 071.0549 14.71193254114491 DUCHIFAT-1 1 40021U 14033M 15176.51256150 .00001731 00000-0 19404-3 0 9996 2 40021 097.9535 077.1384 0014154 151.3326 208.8671 14.88081269 55046 NANOSATCBR1 1 40024U 14033Q 15176.23597995 .00001570 00000-0 17846-3 0 9992 2 40024 097.9521 076.6435 0013335 151.3524 208.8427 14.87656957 54998 DTUSAT-2 1 40030U 14033W 15176.51943332 .00001273 00000-0 14892-3 0 9998 2 40030 097.9507 076.5317 0013058 144.3191 215.8899 14.86806320 55027 ANTELSAT 1 40034U 14033AA 15176.53496329 .00001741 00000-0 27253-3 0 9998 2 40034 097.9418 068.4000 0061365 092.8576 267.9664 14.72747235 54525 MET-2/21 1 22782U 93055A 15176.24916830 .00000001 00000-0 -11998-4 0 9990 2 22782 082.5490 237.2708 0021096 300.2978 119.2280 13.83771348101715 OKEAN-4 1 23317U 94066A 15176.11512130 .00000935 00000-0 10224-3 0 9994 2 23317 082.5389 077.9876 0018860 306.8301 190.8569 14.86713149118485 NOAA-14 1 23455U 94089A 15176.48762709 .00000002 00000-0 23583-4 0 9999 2 23455 098.7520 257.7695 0010414 060.5913 061.3596 14.14045293 56708 NOAA-15 1 25338U 98030A 15176.43838185 .00000140 00000-0 77817-4 0 9990 2 25338 098.7724 175.0793 0011368 139.7075 220.4949 14.25635872890014 RESURS 1 25394U 98043A 15175.46252068 -.00000025 00000-0 71669-5 0 9991 2 25394 098.4654 130.2824 0000322 194.0502 313.1345 14.24458777881319 FENGYUN1 1 25730U 99025A 15176.40885620 .00001230 00000-0 67699-3 0 9991 2 25730 098.9428 141.2657 0021153 116.2935 047.3503 14.13415716830213 OKEAN-0 1 25860U 99039A 15176.11417764 .00000527 00000-0 83880-4 0 9997 2 25860 098.0945 144.1750 0001046 073.9681 348.9443 14.76067933857152 NOAA-16 1 26536U 00055A 15176.44997155 .00000003 00000-0 25838-4 0 9999 2 26536 098.9420 242.4209 0010092 203.9991 156.0712 14.13099875760826 NOAA-17 1 27453U 02032A 15176.43534237 .00000042 00000-0 35430-4 0 9994 2 27453 098.3401 162.0234 0012213 153.1109 207.0707 14.24888709675838 NOAA-18 1 28654U 05018A 15176.49354703 .00000125 00000-0 93607-4 0 9991 2 28654 099.1839 169.3384 0013320 299.9821 060.0027 14.12211044520247 NOAA-19 1 33591U 09005A 15176.45736801 .00000113 00000-0 86103-4 0 9996 2 33591 098.9901 126.3555 0014605 143.0133 217.2047 14.11948852328657 HUBBLE 1 20580U 90037B 15175.26717134 .00001743 00000-0 10064-3 0 9993 2 20580 028.4697 107.4382 0002774 315.9079 174.4074 15.07492643180885 ISS 1 25544U 98067A 15176.83027007 .00014362 00000-0 21376-3 0 9995 2 25544 051.6460 040.8668 0003615 100.2394 000.3403 15.55391939949383 CO-58 1 28895U 05043F 15176.05880799 .00000691 00000-0 14391-3 0 9997 2 28895 097.8215 003.4193 0015620 272.4287 087.5127 14.62811124514743 FALCON 1 30776U 07006E 15175.72696602 .00008397 00000-0 33478-3 0 9998 2 30776 035.4280 313.8717 0002031 359.6962 128.4395 15.24529774457456 MAST 1 31126U 07012K 15175.89443693 .00000470 00000-0 11135-3 0 9993 2 31126 097.9609 143.5765 0089460 271.9585 113.4814 14.56078876434612 CAPE1 1 31130U 07012P 15176.43169046 .00000566 00000-0 13262-3 0 9995 2 31130 097.9827 141.3049 0095866 290.4518 068.6407 14.55524892434082 COMPASS 1 32787U 08021E 15175.59098267 .00002927 00000-0 30267-3 0 9994 2 32787 097.6505 223.0341 0013824 035.2156 324.9973 14.90784426387613 AAUSAT2 1 32788U 08021F 15176.11638557 .00002453 00000-0 24808-3 0 9994 2 32788 097.6516 225.0701 0013170 030.7227 329.4761 14.91836595387780 DO-64 1 32789U 08021G 15176.12421326 .00006277 00000-0 50814-3 0 9994 2 32789 097.6722 236.0945 0011420 023.3470 033.8370 15.00041808388279 CO-66 1 32791U 08021J 15176.08898799 .00001988 00000-0 21750-3 0 9995 2 32791 097.6503 221.3399 0014787 039.1865 321.0421 14.88826840387495 RS-30 1 32953U 08025A 15176.84780089 .00000010 00000-0 -13620-7 0 9992 2 32953 082.5033 328.8536 0019655 063.2935 297.0161 12.43061226321687 METEOR-M 1 35865U 09049A 15176.54280391 .00000058 00000-0 45091-4 0 9997 2 35865 098.5000 216.5902 0003704 092.2231 069.5816 14.22033960299396 RS-38 1 35869U 09049E 15176.54278896 -.00000467 00000-0 -19107-3 0 9992 2 35869 098.4911 216.2166 0005692 085.6337 274.5528 14.22298604299442 JUGNU 1 37839U 11058B 15176.13164756 .00000383 00000-0 62325-4 0 9994 2 37839 019.9598 154.3526 0019194 133.5196 307.7492 14.12473962191340 SRMSAT 1 37841U 11058D 15176.07798641 .00000373 00000-0 60286-4 0 9999 2 37841 019.9702 181.5424 0012032 059.7589 343.0164 14.10484507191061 RAX-2 1 37853U 11061D 15175.44738722 .00007170 00000-0 43665-3 0 9993 2 37853 101.7123 030.0564 0196480 054.6547 062.7703 14.96258209198199 AUBIESAT 1 37854U 11061E 15176.08394806 .00006322 00000-0 37564-3 0 9995 2 37854 101.7176 034.5579 0187324 047.7811 102.6700 14.98408037198400 HRBE 1 37855U 11061F 15176.07298238 .00006203 00000-0 37178-3 0 9996 2 37855 101.7169 033.1160 0194059 050.3691 311.4464 14.97236415198330 HORYU-2 1 38340U 12025D 15176.46361145 .00001110 00000-0 17552-3 0 9994 2 38340 098.3135 146.6049 0013401 071.9708 288.2959 14.74335106166752 RS-40 1 38735U 12041C 15176.72715520 .00000040 00000-0 21992-3 0 9993 2 38735 082.4782 054.6595 0016591 157.7307 202.4496 12.42568455131975 PROITERES 1 38756U 12047B 15176.74171817 .00000139 00000-0 28101-4 0 9998 2 38756 098.2205 276.1742 0010817 270.6467 089.3490 14.75840207150260 BEESAT-3 1 39134U 13015E 15175.68855056 .00006100 00000-0 35726-3 0 9995 2 39134 064.8737 033.5161 0030990 250.1728 109.6055 15.12310159119838 BEESAT-2 1 39136U 13015G 15176.74504538 .00003762 00000-0 23489-3 0 9995 2 39136 064.8743 032.6051 0031452 249.2921 110.4830 15.10668795119957 ZACUBE-1 1 39417U 13066B 15176.17733057 .00001241 00000-0 16658-3 0 9990 2 39417 097.7297 238.3943 0061945 110.2252 250.5635 14.79743671 85814 TRITON-1 1 39427U 13066M 15176.12387641 .00001263 00000-0 21311-3 0 9996 2 39427 097.7145 226.4085 0116833 141.2905 219.6746 14.66665770 85030 DELFIN3XT 1 39428U 13066N 15176.06729161 .00002449 00000-0 41117-3 0 9990 2 39428 097.7147 224.6474 0125381 146.3875 214.5363 14.65415095 84899 GOMX-1 1 39430U 13066Q 15176.51479443 .00001914 00000-0 36211-3 0 9993 2 39430 097.7075 219.0270 0153730 163.0154 197.6202 14.58078865 84591 MO-76 1 39436U 13066W 15176.16386703 .00013608 00000-0 90105-3 0 9991 2 39436 097.7444 252.3622 0022818 080.2035 280.1767 15.07230510 86697 LO-74 1 39440U 13066AA 15176.07398809 .00001479 00000-0 21732-3 0 9999 2 39440 097.7240 233.5645 0083450 121.9078 239.0284 14.74558071 85493 PUCPSAT-1 1 39442U 13066AC 15176.08501734 .00002758 00000-0 29839-3 0 9992 2 39442 097.7388 245.9250 0034679 097.1265 263.3897 14.88640816 85043 SPROUT 1 39770U 14029E 15176.47687367 .00001104 00000-0 13950-3 0 9997 2 39770 097.8700 273.1802 0010229 166.6283 193.5226 14.83832902 58863 POPSAT-HIP1 1 40028U 14033U 15176.73288377 .00001643 00000-0 18915-3 0 9991 2 40028 097.9526 077.0899 0015136 148.8955 211.3162 14.87049395 55051 EO-80 1 40032U 14033Y 15176.46123282 .00001224 00000-0 14370-3 0 9995 2 40032 097.9515 076.4865 0013003 144.6987 215.5092 14.86730933 55018 VELOX-1 1 40057U 14034E 15176.74421880 .00001092 00000-0 16673-3 0 9990 2 40057 098.2138 254.9872 0011131 203.9843 156.0802 14.75868566 53143 DAURIA DX 1 1 40071U 14037C 15176.71146238 .00001043 00000-0 14393-3 0 9990 2 40071 098.3549 248.4793 0008367 203.0662 157.0149 14.80414023 52058 UKUBE-1 1 40074U 14037F 15176.73740024 .00000950 00000-0 12634-3 0 9990 2 40074 098.3575 249.3127 0004391 201.9550 158.1448 14.82228190 52107 HODOYOSHI-1 1 40299U 14070B 15176.72222343 .00004251 00000-0 20340-3 0 9995 2 40299 097.4550 258.1288 0014734 103.0827 056.1277 15.19423276 35118 CHUBUSAT-1 1 40300U 14070C 15176.73763838 .00003528 00000-0 17701-3 0 9991 2 40300 097.4513 257.4092 0024113 104.5616 354.2992 15.17717799 35074 QSAT-EOS 1 40301U 14070D 15176.72833704 .00008094 00000-0 40489-3 0 9993 2 40301 097.4475 256.7443 0033720 105.5852 060.0884 15.17178752 35039 TSUBAME 1 40302U 14070E 15176.73469412 .00004108 00000-0 23054-3 0 9997 2 40302 097.4457 255.5818 0044841 108.1967 350.6457 15.13035554 34968 FIREBIRD FU3 1 40377U 15003B 15176.34022668 .00003244 00000-0 16553-3 0 9997 2 40377 099.1176 211.3208 0156946 226.4611 132.3488 15.07639327 21775 FIREBIRD FU4 1 40378U 15003C 15176.53709597 .00003856 00000-0 19540-3 0 9990 2 40378 099.1175 211.5605 0157195 225.7943 133.0280 15.07659709 21803 GRIFEX 1 40379U 15003D 15176.51143044 .00004753 00000-0 24370-3 0 9992 2 40379 099.1192 211.4392 0158293 227.2879 131.4926 15.06949437 21796 LAMBDA-SAT 1 40458U 98067GB 15136.30676273 .20783109 12527-4 14817-2 0 9995 2 40458 051.6075 233.7697 0010355 318.5347 043.1720 16.39926603 21161 NO-84 1 40654U 15176.29029372 +.00017700 +00000-0 +46446-3 0 00491 2 40654 054.9936 185.4592 0243512 270.1603 087.1323 15.13924872005402 NO-83 1 40655U 15176.36044160 +.00012195 +00000-0 +32593-3 0 00516 2 40655 055.0040 185.2576 0244793 270.1625 087.1183 15.13553627005418 /EX